Decoded Metar for ZMUB (ULAN BATOR in MONGOLIA) (IATA:ULN) | Meteo·Mobile Aviation Weather
aviador You're here:

ZMUB Decoded Metar

ULAN BATOR in MONGOLIA
Report Time2019-02-19 13:00:00
UTC Time2019-02-19 13:40:24
Flight Rules vfr VFR
Wind160° at 6 kt
W.Decomp.*RWY 15: 5.8 kt HW 1.3 kt RCW
RWY 14: 5.5 kt HW 2.3 kt RCW
W.Rank160° ranks 6
Current wind is below 160° avg. (6.9)
Visibility9999 m
Phenomena:N/A
Clouds:N/A
Expected CloudBase > 4,400 ft AGL from Temp-Dew spread
CeilingNone
Temp-18°C (ISA -24)
Dew Point-29°C (38% RH)
AAT-24.0°C
QNH1016 hPa
Density Alt1,220 ft
Elevation4,364 ft
Report Wrong Elevation
Raw Report
ZMUB 191300Z 16003MPS CAVOK M18/M29 Q1016 NOSIG RMK QFE654.9
34=

Extra information for ZMUB:More info

Metar Taf Metar & Taf Last 4 Metars F.Rules Stats Wind Profile Meteogram Temp Stats Airport Information Weather charts Add Link Nearby VenuesMetar ALERT Operation Metar Decoded Social comments